{"data":{"norad_id":68677,"epoch":"2026-09-20T02:31:19.005312Z","epoch_age_seconds":78233,"freshness":"FRESH","line1":"1 68677U 26077R   26263.10508108  .00016721  00000+0  51868-3 0  9995","line2":"2 68677  97.2837 133.0223 0002243  83.2352 276.9146 15.33469913 24959","mean_motion":15.33469913,"eccentricity":0.0002243,"inclination_deg":97.2837,"raan_deg":133.0223,"arg_perigee_deg":83.2352,"mean_anomaly_deg":276.9146,"bstar":0.00051868,"rev_number":2495,"period_min":93.90467904146,"perigee_km":463.93403108399,"apogee_km":467.00407275888,"semimajor_km":6843.6060519214,"source":"CELESTRAK","updated_at":"2026-09-20T09:00:43.952849Z"}}